Wind_Speed
48 47 47 47 46 46 45 45 45 44 45 46 47 48 49 49 49 49 50 51 52 52 52 55 55 53 51 51 50 48 46 46 46 44 43 44 43 40 40 39 38 38 38 36 34 34 34 33 32 31 30 31 30 28
49 47 46 45 44 42 41 42 41 41 42 42 42 42 43 43 44 46 48 50 52 53 53 56 56 56 55 53 52 50 49 47 45 44 44 44 43 41 37 36 35 38 38 33 33 28 29 29 28 28 25 21 21 24
47 46 44 43 41 39 38 39 39 39 40 40 40 39 38 39 39 39 41 44 49 53 54 56 57 59 59 57 55 53 50 44 44 44 44 44 42 38 35 35 34 34 32 32 33 29 26 24 24 21 22 23 27 26
47 45 44 42 41 39 39 39 40 40 40 40 40 39 39 40 40 40 42 43 44 47 51 52 57 58 59 57 54 52 45 45 44 45 43 41 37 36 35 35 35 28 29 29 32 24 26 19 20 16 19 21 23 22
45 44 43 42 41 40 40 41 42 43 43 43 42 41 42 43 42 41 42 44 45 46 46 48 51 52 55 55 52 48 42 41 44 44 43 37 34 35 37 35 25 25 27 30 27 25 27 18 20 18 21 24 28 25
41 40 40 41 41 41 41 42 43 44 45 46 46 47 47 46 45 45 44 44 44 44 45 44 41 41 47 47 43 42 39 40 42 40 35 32 28 35 35 25 19 24 30 31 25 27 23 17 19 21 22 24 28 29
36 37 37 37 37 37 37 39 41 43 44 45 45 42 40 39 39 38 38 37 36 36 35 32 26 32 33 31 33 34 34 36 36 34 30 27 27 30 25 17 24 28 28 26 26 29 20 22 23 21 19 24 26 27
32 31 31 32 33 35 37 38 39 38 37 35 36 35 33 32 31 29 29 27 25 23 22 20 23 24 23 26 25 27 30 29 29 27 25 26 24 22 17 21 22 22 23 26 28 28 22 23 24 22 23 24 24 23
27 29 30 32 33 34 34 34 33 32 31 29 28 29 28 25 22 22 19 19 19 20 18 19 22 23 23 24 23 22 22 23 23 23 23 23 21 18 21 19 19 20 23 24 23 20 20 21 22 23 24 22 22 20
25 26 25 24 24 25 27 28 28 26 26 24 23 20 18 17 17 17 18 20 20 16 14 20 23 24 22 24 24 24 23 23 22 21 21 19 15 19 17 16 17 19 20 17 17 17 17 17 18 17 18 17 17 15
17 18 18 18 19 18 19 19 19 19 19 19 18 16 18 18 18 20 21 17 10 13 15 21 23 21 23 24 24 22 19 18 17 18 17 13 15 17 15 16 16 15 15 15 16 18 18 19 20 18 17 14 13 13
14 13 13 13 13 12 13 13 14 15 15 19 21 20 19 18 19 20 22 15 20 17 17 21 23 22 23 22 19 17 16 16 15 15 14 12 16 14 14 14 14 16 17 19 20 21 23 22 19 17 15 13 13 15
12 11 11 10 9 10 11 14 19 23 22 21 20 19 19 17 14 17 18 18 21 17 19 22 25 24 23 23 19 18 14 13 12 11 10 13 13 13 14 14 15 17 17 16 18 21 24 24 20 18 17 17 15 14
10 10 9 12 15 19 22 22 21 23 25 23 16 13 20 10 10 15 16 15 14 16 16 18 21 23 20 20 20 14 14 12 10 9 9 9 12 13 15 15 18 13 13 12 7 4 4 10 17 18 16 17 16 17
11 13 16 19 19 19 22 27 33 30 22 17 11 11 15 10 13 15 17 18 18 16 16 17 17 20 23 23 16 17 12 9 8 11 9 8 10 10 9 4 7 10 9 7 3 1 6 4 6 8 6 4 11 9
17 19 20 21 24 31 39 33 24 20 18 15 18 19 18 18 19 21 22 23 20 18 18 17 19 23 25 18 17 11 10 7 7 8 8 7 6 8 14 12 10 8 6 5 4 3 2 2 5 5 4 2 3 9
21 21 25 30 38 38 32 27 25 21 18 18 21 21 21 21 22 23 25 26 21 15 18 20 20 19 17 15 14 13 10 6 6 8 12 8 5 6 5 5 4 3 2 4 4 4 3 1 2 6 7 3 4 6
25 29 31 31 31 32 27 20 22 22 24 24 21 20 14 20 20 19 19 24 21 14 16 16 16 14 13 14 13 12 9 6 7 12 9 6 3 3 3 4 3 4 4 4 4 5 5 6 6 8 10 11 11 11
29 29 31 30 29 27 22 22 24 25 22 18 25 21 18 20 19 19 27 18 15 13 12 15 17 17 16 15 14 9 8 4 8 8 6 5 4 4 2 2 1 1 2 3 4 4 6 7 9 8 8 11 12 10
32 32 31 29 27 25 25 24 23 19 19 11 11 19 17 15 25 19 18 17 13 10 11 14 14 17 18 13 8 12 10 8 6 5 5 4 4 3 2 2 4 4 4 2 2 4 4 4 6 6 7 8 9 11
33 32 31 31 29 25 23 18 17 19 16 20 31 27 22 24 28 23 17 14 12 10 14 17 14 13 15 17 16 11 7 4 4 4 4 4 1 2 3 2 3 2 2 3 1 1 2 2 3 4 5 5 6 8
35 32 30 29 26 22 18 18 17 18 21 22 21 21 20 21 21 20 18 18 21 18 15 10 19 15 15 14 13 9 6 4 3 3 3 1 1 2 1 1 3 2 3 2 3 5 7 8 9 9 9 9 10 10
32 27 24 23 20 18 18 16 17 22 24 24 21 17 17 17 17 17 21 23 20 17 16 11 10 10 10 8 6 4 3 5 4 3 2 2 1 3 1 2 3 5 5 5 6 6 7 7 7 7 7 7 9 11
23 23 19 22 23 26 24 25 24 23 22 21 23 29 23 20 21 21 18 15 11 9 7 7 6 5 4 4 3 3 4 6 6 4 3 4 4 3 2 2 3 5 7 8 6 4 4 4 5 7 10 12 14 17
37 29 26 25 21 22 20 24 23 23 20 21 24 26 24 21 18 16 11 10 9 8 7 6 5 5 5 5 5 7 8 7 6 5 5 7 2 1 2 3 4 5 5 4 4 6 9 11 13 14 15 17 18 19
27 24 25 26 22 19 19 19 18 19 23 26 22 16 15 16 13 10 10 9 6 6 5 6 8 8 8 8 8 10 9 8 6 5 4 2 1 1 3 3 1 1 4 7 9 11 12 13 15 16 17 18 18 20
27 25 21 20 18 18 17 16 15 16 15 15 15 16 14 12 10 8 7 8 10 8 6 12 13 14 14 11 10 8 6 5 4 3 2 2 3 3 3 3 4 6 8 10 12 13 14 15 15 17 18 19 20 20
22 20 19 18 17 16 15 13 13 15 16 15 15 14 14 12 13 13 13 12 11 9 12 13 9 7 8 7 6 5 4 4 4 5 5 5 3 4 5 6 8 10 10 10 11 13 14 15 17 18 19 19 19 20
18 17 16 17 17 16 15 14 14 15 16 15 14 15 15 15 12 12 7 9 9 8 9 9 9 7 5 4 6 7 6 6 5 3 4 6 7 8 10 11 10 7 7 9 14 17 18 19 19 18 19 19 20 21
21 20 20 21 20 19 19 18 21 22 22 19 16 13 8 5 7 7 7 6 7 8 7 6 4 4 4 5 5 5 4 2 3 5 6 9 10 10 9 8 8 8 10 14 18 19 19 19 20 20 20 20 22 24
20 21 21 21 17 17 18 16 14 14 15 15 11 9 8 8 8 8 9 8 5 4 5 7 7 6 5 4 3 1 3 4 5 6 8 8 8 7 8 9 10 12 15 17 19 19 20 20 21 22 22 23 25 27
17 17 17 16 13 12 11 11 10 8 8 8 8 7 7 8 8 8 9 10 9 8 7 6 4 3 2 3 3 5 6 8 9 9 9 8 8 9 10 12 13 15 17 18 19 20 21 22 22 23 25 25 26 27
12 12 11 8 7 5 4 4 6 8 10 10 10 10 11 11 10 9 9 9 8 7 5 3 2 2 3 5 6 7 9 9 8 8 8 8 9 11 13 14 16 18 19 20 21 22 22 23 24 24 24 26 28 29
Wind_Direction
273 273 274 274 273 273 273 272 271 269 266 264 263 264 265 265 264 262 261 259 256 255 252 250 250 251 251 253 254 255 256 256 257 257 260 264 266 270 271 273 276 279 283 288 292 297 297 294 292 291 289 291 292 289
272 272 272 272 272 272 269 266 262 260 258 258 259 261 263 263 263 262 261 259 257 255 252 249 248 248 249 248 249 251 252 253 255 259 261 263 264 265 268 272 275 280 284 290 295 292 288 286 286 285 289 287 284 277
269 269 268 267 266 265 263 260 258 254 255 256 260 263 264 265 265 265 266 264 258 254 250 249 248 245 245 246 246 247 250 253 254 255 258 261 264 266 269 272 275 279 285 291 291 287 281 278 280 283 287 277 280 283
266 265 264 262 263 262 260 258 255 254 256 260 262 267 270 272 273 272 269 271 270 262 251 250 248 245 243 242 243 244 244 248 250 254 257 260 263 264 265 270 273 278 285 284 284 281 277 278 276 279 280 278 280 277
261 259 258 258 259 260 259 255 254 256 259 261 265 269 273 277 276 271 268 269 273 267 257 252 250 247 243 241 239 239 240 242 246 248 252 254 257 261 264 268 280 277 278 276 273 269 271 273 279 274 274 274 273 274
257 256 257 258 258 258 257 255 257 259 262 266 270 274 275 275 272 267 265 266 265 262 257 251 252 248 242 239 238 236 233 234 240 246 249 249 252 258 263 275 269 266 262 266 272 272 274 268 262 263 269 269 269 276
256 257 259 259 258 257 256 257 260 262 265 268 270 269 268 267 265 265 263 261 261 261 260 255 242 238 238 235 230 229 231 234 238 241 243 244 247 258 269 268 251 252 260 268 270 270 275 261 261 266 263 258 265 273
252 253 255 256 257 258 259 260 262 262 263 264 266 265 265 265 263 260 254 254 258 256 251 241 223 225 223 216 215 221 224 226 229 233 233 235 241 249 253 247 252 255 260 262 263 268 269 267 262 254 250 254 262 266
251 254 255 257 259 260 260 259 259 260 262 259 259 263 263 258 248 241 239 240 239 232 225 208 201 199 200 203 204 209 217 223 224 221 223 229 234 244 241 245 247 253 258 265 269 268 262 259 253 254 250 252 258 263
254 258 258 258 259 260 259 256 255 253 255 254 252 247 251 225 216 218 222 217 211 192 202 192 183 188 190 195 200 202 206 212 215 215 222 227 227 236 242 252 258 258 258 262 267 265 258 256 249 245 244 246 257 267
250 252 254 256 260 259 253 247 243 243 241 239 235 210 197 200 204 204 210 199 206 178 186 186 182 182 184 188 195 196 198 202 209 218 224 218 221 235 245 251 256 260 259 260 261 259 260 253 250 245 240 239 250 261
251 249 249 245 248 245 240 230 227 221 198 176 175 182 189 190 187 192 198 195 179 176 190 180 173 171 178 179 185 183 181 184 197 211 210 208 227 234 240 247 252 254 267 263 257 256 259 260 256 248 244 245 253 270
242 243 244 237 223 206 195 170 157 153 160 167 168 170 176 176 183 190 191 210 207 176 176 172 169 165 165 166 170 179 187 190 201 209 210 222 229 228 239 245 253 260 267 255 258 263 253 245 244 246 249 258 255 258
224 217 200 167 160 155 150 155 154 151 134 123 120 146 161 118 146 169 178 177 157 161 163 166 173 178 170 175 176 191 205 205 207 214 226 236 235 239 251 256 246 248 245 255 242 330 347 213 226 235 241 249 245 243
176 162 151 151 151 152 148 141 133 126 109 90 102 157 168 132 140 145 147 149 148 144 152 153 157 166 173 176 189 197 197 199 219 214 239 239 234 232 251 210 188 206 207 204 175 156 108 161 186 203 212 266 207 215
145 149 151 150 145 140 138 126 106 114 107 113 133 141 139 141 140 139 139 138 134 137 145 151 161 167 173 178 191 183 182 200 232 230 211 185 198 225 168 149 165 177 197 200 188 182 168 90 108 112 148 130 203 236
143 145 143 141 141 138 116 110 115 111 121 135 135 135 130 121 133 142 147 147 138 133 136 150 160 164 170 175 173 179 184 211 185 173 137 143 132 131 150 155 166 188 208 215 203 218 256 298 217 226 194 188 199 221
136 134 134 138 142 145 138 113 115 123 127 125 121 122 99 132 145 145 139 123 126 140 142 150 157 165 167 170 174 179 181 161 137 138 131 136 151 155 148 163 192 218 229 238 232 226 237 259 262 249 248 249 258 282
125 127 131 135 141 145 133 121 126 127 118 129 128 118 128 133 140 132 123 115 138 136 150 157 154 156 165 172 172 163 184 158 106 119 125 126 121 115 126 120 46 295 258 234 238 248 240 250 260 260 257 257 245 261
123 126 128 129 132 129 128 135 130 96 88 105 103 108 142 117 124 131 129 134 134 131 147 163 159 167 162 143 146 152 135 136 146 134 123 110 99 90 87 19 3 341 298 315 250 215 217 251 266 275 279 276 283 275
112 114 115 119 122 124 129 125 96 105 112 93 115 122 117 118 121 129 134 136 135 134 133 136 134 146 147 141 148 154 152 163 171 158 137 107 114 24 67 113 11 52 41 336 328 234 258 317 318 312 304 305 305 293
110 110 113 116 118 118 113 111 105 109 109 106 109 118 121 126 130 138 138 125 115 124 136 152 132 134 134 146 155 161 164 165 164 160 161 143 314 316 22 116 5 43 50 44 339 328 321 317 319 320 322 320 318 316
100 104 111 116 114 113 110 110 115 110 113 114 111 118 126 122 124 129 131 126 122 114 112 120 128 119 130 145 174 202 217 192 172 183 197 217 297 177 119 59 345 348 343 342 341 334 321 319 321 322 323 321 315 310
80 92 119 114 104 96 96 123 124 126 123 130 104 113 116 116 120 121 116 111 100 87 93 104 123 138 151 155 164 183 184 166 172 183 185 149 124 127 188 281 318 327 324 321 328 344 355 346 329 318 317 318 319 318
113 128 130 119 109 109 108 109 108 117 108 125 133 124 133 142 133 143 121 113 105 105 103 111 136 144 143 146 137 139 146 161 167 168 168 166 176 16 8 328 313 306 306 337 349 343 336 330 327 325 324 321 318 315
128 126 124 121 115 114 117 111 113 116 122 126 126 126 125 127 130 136 132 125 107 95 97 123 121 109 109 121 133 118 112 109 113 124 140 139 111 311 313 341 20 8 346 339 340 336 330 327 323 319 318 317 316 315
112 120 121 117 114 116 120 123 126 129 133 134 125 123 119 120 116 107 112 116 125 118 71 132 117 104 93 99 103 114 126 138 143 134 116 106 94 76 62 35 355 341 339 334 331 331 332 332 330 325 320 317 317 319
108 111 113 113 112 109 110 119 130 138 140 138 134 128 123 127 117 109 105 103 101 106 110 124 119 113 112 92 90 99 109 104 100 98 90 80 60 12 350 350 349 344 343 352 357 352 344 339 333 330 329 329 330 331
106 103 101 104 111 113 99 103 102 129 134 129 131 134 119 115 120 132 106 102 87 80 100 127 121 100 105 83 88 101 107 112 111 83 28 1 355 350 343 343 350 359 359 358 350 346 344 341 338 335 333 333 334 335
103 100 97 96 111 110 92 100 103 114 126 122 116 120 127 119 110 113 110 110 108 106 99 99 99 93 94 94 95 104 106 66 16 356 348 340 334 331 329 339 339 332 330 333 336 339 341 341 340 338 336 333 331 331
107 105 98 101 105 93 85 87 97 97 104 112 119 108 110 110 107 109 112 115 111 96 94 102 102 99 100 107 105 61 356 344 333 325 323 326 328 330 332 333 330 328 329 333 336 339 341 340 339 337 335 333 332 332
107 108 110 106 99 92 82 76 78 87 100 102 100 96 96 99 110 117 118 117 112 102 91 89 88 78 40 7 6 355 343 337 335 336 338 341 339 336 334 333 335 337 337 336 337 339 339 337 336 335 335 336 336 334
86 94 101 94 74 61 50 71 85 96 103 105 106 101 98 96 96 97 95 92 92 91 88 77 40 3 341 332 331 333 333 335 340 342 342 337 333 334 337 339 339 339 338 337 336 336 336 335 336 336 337 338 338 338
Height
5658 5659 5661 5663 5664 5666 5668 5669 5671 5673 5675 5677 5679 5680 5682 5686 5689 5692 5693 5696 5701 5707 5711 5711 5714 5719 5722 5726 5729 5733 5736 5738 5740 5743 5745 5746 5747 5748 5749 5750 5750 5750 5749 5749 5749 5747 5747 5744 5743 5743 5741 5739 5738 5736
5642 5644 5645 5647 5649 5651 5653 5655 5657 5659 5661 5662 5665 5666 5668 5670 5673 5676 5677 5679 5682 5688 5695 5694 5698 5702 5706 5709 5715 5718 5722 5724 5728 5730 5733 5734 5735 5737 5739 5741 5740 5741 5740 5741 5742 5740 5737 5736 5735 5733 5733 5733 5731 5729
5626 5628 5630 5632 5635 5637 5639 5641 5643 5646 5648 5650 5652 5654 5655 5657 5659 5662 5663 5663 5665 5669 5675 5678 5681 5681 5687 5694 5698 5705 5709 5713 5716 5717 5719 5722 5725 5727 5728 5729 5728 5728 5729 5730 5730 5730 5730 5728 5727 5727 5727 5725 5724 5723
5610 5612 5615 5617 5620 5623 5625 5627 5630 5633 5635 5637 5639 5641 5642 5643 5646 5648 5649 5648 5650 5651 5656 5662 5659 5665 5670 5676 5683 5690 5695 5699 5703 5706 5708 5711 5715 5717 5717 5717 5718 5721 5721 5721 5720 5722 5720 5721 5720 5720 5720 5719 5718 5716
5594 5598 5600 5603 5606 5609 5611 5614 5616 5620 5622 5624 5625 5627 5629 5629 5631 5633 5635 5634 5634 5635 5640 5644 5643 5647 5653 5660 5669 5676 5682 5686 5690 5693 5697 5703 5706 5707 5707 5707 5712 5711 5712 5711 5712 5712 5711 5714 5713 5714 5713 5712 5711 5710
5580 5583 5586 5589 5592 5594 5596 5600 5603 5606 5608 5610 5611 5613 5614 5615 5617 5618 5621 5620 5618 5619 5622 5629 5631 5632 5638 5648 5657 5664 5668 5673 5678 5684 5689 5693 5697 5696 5697 5702 5705 5703 5700 5701 5705 5704 5706 5708 5707 5707 5707 5705 5704 5703
5568 5571 5574 5576 5579 5581 5583 5586 5589 5592 5594 5596 5596 5598 5599 5601 5603 5605 5607 5606 5606 5608 5611 5616 5619 5621 5631 5639 5646 5653 5658 5665 5671 5676 5681 5685 5687 5688 5691 5696 5693 5693 5694 5695 5696 5696 5699 5698 5698 5699 5699 5698 5697 5697
5556 5560 5562 5565 5567 5569 5571 5573 5575 5578 5580 5582 5583 5585 5587 5590 5592 5594 5594 5596 5598 5600 5602 5607 5612 5618 5626 5632 5638 5645 5652 5657 5662 5668 5673 5675 5678 5681 5685 5684 5686 5687 5688 5688 5689 5689 5691 5691 5691 5691 5691 5691 5691 5691
5547 5550 5552 5554 5556 5557 5558 5561 5563 5566 5569 5570 5573 5576 5578 5580 5582 5584 5588 5590 5591 5595 5597 5602 5607 5613 5620 5626 5633 5639 5646 5652 5658 5662 5666 5669 5671 5674 5675 5678 5679 5680 5681 5681 5681 5681 5682 5683 5684 5685 5686 5686 5686 5686
5539 5540 5542 5543 5545 5546 5548 5550 5553 5556 5559 5561 5565 5568 5571 5573 5576 5580 5582 5584 5586 5589 5595 5599 5604 5610 5617 5623 5629 5636 5641 5647 5653 5657 5659 5662 5666 5666 5669 5671 5672 5672 5673 5674 5675 5675 5676 5678 5679 5680 5680 5680 5681 5681
5531 5532 5534 5535 5537 5537 5539 5541 5545 5548 5551 5554 5558 5563 5566 5569 5573 5576 5577 5581 5585 5589 5594 5597 5603 5608 5615 5621 5627 5633 5639 5644 5648 5651 5654 5658 5660 5661 5664 5664 5666 5666 5667 5669 5670 5670 5672 5673 5674 5674 5674 5676 5676 5676
5525 5526 5528 5529 5531 5532 5534 5537 5539 5542 5545 5550 5555 5560 5563 5567 5571 5573 5577 5581 5585 5589 5594 5597 5602 5608 5614 5621 5627 5633 5637 5641 5644 5647 5651 5654 5655 5656 5658 5660 5660 5661 5662 5664 5664 5665 5666 5667 5668 5669 5670 5671 5672 5672
5520 5521 5523 5525 5526 5528 5531 5534 5538 5542 5546 5551 5555 5560 5564 5569 5572 5576 5579 5582 5584 5589 5594 5598 5604 5609 5615 5622 5627 5632 5635 5638 5642 5645 5648 5650 5651 5652 5653 5655 5656 5656 5657 5657 5658 5659 5659 5660 5662 5663 5665 5666 5668 5668
5516 5518 5520 5523 5526 5529 5533 5537 5540 5545 5551 5555 5559 5563 5566 5570 5573 5576 5578 5582 5587 5592 5596 5601 5606 5612 5617 5621 5626 5630 5635 5638 5641 5643 5645 5647 5647 5649 5650 5651 5651 5652 5653 5654 5655 5654 5652 5651 5654 5658 5660 5661 5663 5664
5514 5517 5521 5525 5529 5532 5536 5541 5545 5550 5554 5558 5562 5566 5569 5572 5576 5579 5583 5587 5591 5595 5600 5604 5609 5614 5618 5622 5627 5632 5635 5637 5640 5641 5642 5643 5645 5646 5647 5647 5648 5649 5651 5652 5653 5653 5653 5653 5654 5655 5657 5657 5658 5659
5516 5520 5524 5528 5532 5537 5542 5547 5551 5555 5558 5561 5565 5569 5573 5576 5579 5583 5587 5591 5595 5599 5603 5608 5612 5616 5621 5624 5629 5633 5635 5637 5638 5638 5640 5642 5643 5643 5644 5645 5646 5648 5650 5651 5652 5652 5653 5653 5654 5655 5655 5656 5657 5658
5520 5524 5528 5533 5539 5545 5549 5553 5557 5560 5563 5567 5570 5574 5577 5581 5584 5587 5589 5592 5596 5604 5606 5610 5615 5619 5624 5626 5630 5632 5634 5637 5636 5638 5639 5641 5643 5643 5645 5646 5648 5649 5649 5650 5651 5652 5652 5652 5653 5654 5653 5655 5657 5658
5526 5531 5536 5541 5547 5552 5557 5560 5563 5566 5570 5573 5577 5580 5581 5585 5589 5591 5595 5599 5603 5607 5610 5613 5617 5621 5625 5628 5631 5633 5635 5637 5637 5639 5641 5643 5644 5645 5646 5646 5647 5648 5649 5649 5649 5650 5650 5651 5652 5653 5654 5654 5654 5655
5535 5540 5545 5550 5555 5559 5564 5567 5570 5573 5576 5579 5582 5586 5588 5591 5595 5597 5600 5604 5608 5611 5613 5616 5619 5622 5626 5629 5632 5635 5637 5638 5639 5642 5643 5644 5645 5646 5646 5646 5647 5647 5647 5648 5648 5649 5649 5650 5650 5650 5651 5651 5651 5651
5544 5549 5554 5558 5563 5568 5571 5574 5576 5579 5582 5584 5586 5589 5593 5594 5599 5603 5606 5609 5612 5614 5616 5619 5622 5625 5628 5631 5635 5637 5639 5640 5642 5643 5644 5645 5646 5646 5647 5647 5647 5646 5646 5646 5647 5648 5649 5649 5649 5648 5648 5649 5648 5647
5556 5560 5565 5568 5571 5575 5579 5581 5584 5586 5589 5590 5591 5596 5599 5602 5605 5609 5612 5613 5615 5617 5619 5622 5624 5626 5630 5633 5636 5638 5640 5642 5642 5644 5645 5646 5646 5647 5648 5649 5648 5647 5647 5646 5646 5646 5647 5647 5647 5647 5647 5646 5645 5645
5566 5570 5574 5578 5582 5585 5587 5589 5591 5593 5596 5597 5600 5602 5605 5608 5611 5613 5615 5618 5620 5621 5624 5627 5629 5632 5634 5636 5638 5640 5642 5642 5643 5644 5645 5646 5647 5647 5648 5648 5648 5648 5648 5648 5648 5647 5646 5645 5645 5644 5644 5643 5643 5643
5579 5582 5585 5587 5590 5592 5594 5595 5597 5599 5601 5603 5606 5608 5610 5613 5616 5618 5619 5622 5626 5628 5629 5631 5633 5635 5637 5638 5640 5640 5641 5643 5644 5645 5646 5647 5647 5648 5648 5648 5648 5648 5648 5648 5647 5647 5646 5645 5644 5643 5642 5641 5641 5639
5587 5591 5592 5594 5596 5598 5599 5602 5604 5606 5608 5609 5610 5613 5617 5619 5621 5625 5627 5629 5631 5632 5633 5634 5636 5637 5638 5640 5641 5642 5642 5643 5645 5646 5646 5647 5648 5649 5649 5649 5649 5649 5648 5647 5647 5646 5645 5644 5643 5642 5641 5639 5637 5635
5594 5597 5599 5602 5605 5607 5608 5610 5611 5614 5615 5616 5619 5621 5623 5626 5628 5631 5632 5633 5634 5635 5636 5637 5637 5639 5640 5642 5643 5644 5644 5645 5646 5647 5648 5649 5649 5650 5650 5649 5649 5648 5648 5647 5647 5645 5644 5643 5641 5639 5637 5635 5632 5629
5601 5605 5608 5610 5613 5615 5616 5617 5619 5620 5622 5624 5626 5628 5630 5632 5634 5634 5636 5637 5638 5638 5639 5639 5641 5642 5643 5644 5645 5647 5648 5648 5648 5648 5649 5650 5650 5650 5649 5649 5648 5648 5647 5646 5645 5643 5642 5640 5638 5635 5633 5630 5627 5625
5612 5613 5615 5617 5618 5620 5621 5623 5624 5626 5628 5629 5631 5633 5634 5636 5637 5638 5638 5639 5640 5641 5641 5641 5643 5645 5646 5647 5648 5649 5649 5649 5649 5649 5650 5650 5649 5649 5649 5649 5648 5648 5646 5645 5643 5641 5639 5637 5634 5631 5629 5626 5623 5619
5619 5621 5622 5623 5624 5625 5626 5627 5628 5629 5631 5633 5635 5637 5638 5639 5641 5641 5642 5644 5645 5645 5645 5646 5646 5648 5648 5649 5650 5650 5650 5650 5650 5650 5650 5650 5650 5649 5649 5648 5647 5646 5644 5642 5640 5638 5636 5633 5630 5626 5623 5620 5617 5613
5626 5626 5628 5628 5630 5631 5632 5632 5631 5633 5635 5637 5639 5641 5643 5644 5644 5646 5646 5647 5648 5648 5649 5649 5650 5650 5650 5651 5651 5651 5652 5652 5652 5652 5651 5650 5649 5649 5647 5646 5644 5643 5642 5640 5638 5635 5632 5629 5626 5622 5619 5615 5612 5608
5633 5634 5635 5635 5637 5638 5638 5638 5638 5639 5640 5641 5643 5645 5647 5647 5648 5649 5650 5651 5651 5651 5651 5652 5652 5652 5652 5653 5653 5653 5653 5653 5652 5651 5650 5649 5648 5647 5646 5644 5643 5642 5640 5638 5635 5632 5628 5625 5622 5618 5615 5611 5608 5604
5641 5641 5642 5643 5645 5645 5645 5645 5645 5646 5647 5648 5649 5650 5650 5651 5652 5652 5652 5653 5653 5653 5654 5654 5654 5654 5654 5655 5655 5654 5653 5653 5652 5651 5650 5648 5647 5645 5644 5643 5641 5639 5637 5634 5631 5628 5625 5621 5618 5614 5611 5607 5603 5598
5648 5647 5648 5649 5650 5650 5650 5650 5651 5651 5650 5651 5652 5652 5653 5653 5653 5654 5654 5654 5655 5656 5656 5656 5657 5656 5656 5656 5655 5654 5653 5652 5650 5649 5647 5646 5644 5643 5642 5640 5638 5636 5633 5630 5627 5624 5621 5617 5613 5609 5605 5602 5597 5593
5654 5654 5654 5654 5654 5654 5653 5654 5654 5654 5654 5655 5655 5655 5656 5656 5657 5657 5657 5657 5658 5658 5658 5658 5658 5657 5656 5656 5655 5653 5652 5650 5649 5647 5646 5645 5643 5641 5639 5637 5635 5632 5630 5626 5623 5620 5616 5613 5609 5605 5601 5597 5593 5588